This is the latest recevied weather packets stored in our database for station/object AE6BH. If no packets are shown the sender has not sent any weather packets the latest 10 day(s).
| Time | Temp. | Humidity | Pressure | Rain* | Wind** | Luminosity | Snow |
|---|---|---|---|---|---|---|---|
| 1778102299 | 22.22° C | 50% | 1016.9 hPa | 0 mm | - | 710 W/m² | - |
| 1778101995 | 22.22° C | 51% | 1016.8 hPa | 0 mm | - | 738 W/m² | - |
| 1778101693 | 22.78° C | 50% | 1017 hPa | 0 mm | - | 743 W/m² | - |
| 1778101389 | 22.22° C | 51% | 1017.1 hPa | 0 mm | - | 737 W/m² | - |
| 1778101087 | 22.22° C | 49% | 1016.9 hPa | 0 mm | - | 744 W/m² | - |
| 1778100782 | 22.22° C | 50% | 1017 hPa | 0 mm | - | 764 W/m² | - |
| 1778100479 | 22.22° C | 49% | 1016.9 hPa | 0 mm | - | 776 W/m² | - |
| 1778100177 | 21.67° C | 50% | 1017.1 hPa | 0 mm | - | 766 W/m² | - |
| 1778099874 | 21.67° C | 50% | 1017 hPa | 0 mm | - | 732 W/m² | - |
| 1778099571 | 22.22° C | 50% | 1017.2 hPa | 0 mm | - | 739 W/m² | - |
| 1778099268 | 21.67° C | 52% | 1017.2 hPa | 0 mm | - | 687 W/m² | - |
| 1778098965 | 21.67° C | 50% | 1017.4 hPa | 0 mm | - | 695 W/m² | - |
| 1778098662 | 21.67° C | 50% | 1017.2 hPa | 0 mm | - | 744 W/m² | - |
| 1778098358 | 22.22° C | 48% | 1017.2 hPa | 0 mm | - | 743 W/m² | - |
| 1778098056 | 22.78° C | 48% | 1017.2 hPa | 0 mm | - | 737 W/m² | - |
| 1778097752 | 22.22° C | 48% | 1017.5 hPa | 0 mm | - | 729 W/m² | - |
| 1778097448 | 22.22° C | 48% | 1017.2 hPa | 0 mm | - | 734 W/m² | - |
| 1778097145 | 23.89° C | 45% | 1017.2 hPa | 0 mm | - | 738 W/m² | - |
| 1778096842 | 23.89° C | 44% | 1017.1 hPa | 0 mm | - | 746 W/m² | - |
| 1778096539 | 23.33° C | 45% | 1017.4 hPa | 0 mm | - | 751 W/m² | - |
| 1778096237 | 22.22° C | 47% | 1017.5 hPa | 0 mm | - | 752 W/m² | - |
| 1778095933 | 22.78° C | 46% | 1017.6 hPa | 0 mm | - | 741 W/m² | - |
| 1778095630 | 22.78° C | 46% | 1017.7 hPa | 0 mm | - | 754 W/m² | - |
| 1778095326 | 22.22° C | 46% | 1017.6 hPa | 0 mm | - | 752 W/m² | - |
| 1778095024 | 22.22° C | 46% | 1017.7 hPa | 0 mm | - | 756 W/m² | - |
* Rain latest hour (hover to see other rain measurements)
** Current wind speed in m/s (hover to see current wind gust speed)